Regional Weather Roundup
Issued by NWS

Home | Current Version | Previous Version | Text Only | Print | Product List | Glossary On
Versions: 1 2 3 4 5 6 7 8 9 10 11 12 13 14 15 16 17 18 19 20 21 22 23 24 25 26 27 28 29 30 31 32 33 34 35 36 37 38 39 40 41 42 43 44 45 46 47 48 49 50
000
ASUS43 KMKX 200611
RWRWI

WISCONSIN REGIONAL WEATHER ROUNDUP
NATIONAL WEATHER SERVICE MILWAUKEE/SULLIVAN WI
100 AM CDT WED AUG 20 2014

NOTE: "FAIR" INDICATES FEW OR NO CLOUDS BELOW 12,000 FEET WITH NO
SIGNIFICANT WEATHER AND/OR OBSTRUCTIONS TO VISIBILITY.

WIZ001-002-006>008-014>016-023>028-200700-
NORTHWEST WISCONSIN

CITY           SKY/WX    TMP DP  RH WIND       PRES   REMARKS
SUPERIOR ARPT  CLOUDY    61  60  97 CALM      29.82S
6HR MIN TEMP:  61; 6HR MAX TEMP:  65;

ASHLAND        CLOUDY    59  58  96 CALM      29.84S
6HR MIN TEMP:  59; 6HR MAX TEMP:  63;

HAYWARD        CLOUDY    60  60 100 CALM      29.83S
6HR MIN TEMP:  58; 6HR MAX TEMP:  66;

SIREN          FAIR      62  61  97 NE3       29.81S
6HR MIN TEMP:  62; 6HR MAX TEMP:  68; 6HR PCP:  0.22;

RICE LAKE        N/A     62  60  94 N3        29.82S FOG
6HR MIN TEMP:  62; 6HR MAX TEMP:  72; 6HR PCP:  0.01;

LADYSMITH      FAIR      61  60  96 N3        29.83S
6HR MIN TEMP:  61; 6HR MAX TEMP:  72;

EAU CLAIRE     FAIR      64  64 100 CALM      29.79R
6HR MIN TEMP:  63; 6HR MAX TEMP:  72;

MENOMONIE      FAIR      65  63  95 CALM      29.80S
6HR MIN TEMP:  65; 6HR MAX TEMP:  76;

NEW RICHMOND   FAIR      62  62  99 CALM      29.81R
6HR MIN TEMP:  62; 6HR MAX TEMP:  74;

OSCEOLA          N/A     62  62 100 CALM      29.83R FOG
6HR MIN TEMP:  62; 6HR MAX TEMP:  73;

$$

WIZ003>005-009-010-017-018-200700-
NORTH CENTRAL WISCONSIN

CITY           SKY/WX    TMP DP  RH WIND       PRES   REMARKS
WOODRUFF       CLOUDY    60  57  89 N7        29.81S
6HR MIN TEMP:  59; 6HR MAX TEMP:  66;

RHINELANDER    CLOUDY    60  58  92 W6        29.80F
6HR MIN TEMP:  58; 6HR MAX TEMP:  65;

EAGLE RIVER    CLOUDY    59  58  96 NW5       29.79S
6HR MIN TEMP:  59; 6HR MAX TEMP:  62;

LAND O LAKES   CLOUDY    59  58  97 NW3       29.81R
6HR MIN TEMP:  59; 6HR MAX TEMP:  62;

PHILLIPS       CLOUDY    59  58  96 N3        29.81S
6HR MIN TEMP:  59; 6HR MAX TEMP:  65;

TOMAHAWK       FAIR      56  55  96 CALM      29.81S FOG
6HR MIN TEMP:  54; 6HR MAX TEMP:  65;

MEDFORD        MOCLDY    57  57  99 CALM      29.80F FOG
6HR MIN TEMP:  57; 6HR MAX TEMP:  66; 6HR PCP:  0.09;

MERRILL        FAIR      58  58 100 CALM      29.79F
6HR MIN TEMP:  58; 6HR MAX TEMP:  67;

$$

WIZ029-030-035-036-043>047-200700-
CENTRAL WISCONSIN

CITY           SKY/WX    TMP DP  RH WIND       PRES   REMARKS
WAUSAU         MOCLDY    62  61  96 CALM      29.78R
6HR MIN TEMP:  62; 6HR MAX TEMP:  67;

MOSINEE        FAIR      61  61 100 NW3       29.80S
MARSHFIELD     FAIR      61  60  97 NW5       29.79S
6HR MIN TEMP:  61; 6HR MAX TEMP:  72;

STEVENS POINT  FAIR      59  59  99 CALM      29.79S
6HR MIN TEMP:  59; 6HR MAX TEMP:  71; 6HR PCP:  0.03;

WAUPACA        FAIR      64  62  92 CALM      29.78S
6HR MIN TEMP:  64; 6HR MAX TEMP:  76;

WAUTOMA        FAIR      60  60 100 CALM      29.79S
6HR MIN TEMP:  60; 6HR MAX TEMP:  75;

WISC RAPIDS    FOG       60  59  96 CALM      29.80S VSB 3/4
6HR MIN TEMP:  60; 6HR MAX TEMP:  74;

CAMP DOUGLAS   FOG       59  59  99 W2        29.80R VSB 1/2
6HR MIN TEMP:  58; 6HR MAX TEMP:  73;

$$

WIZ011>013-019>022-031-037>040-048>050-200700-
NORTHEAST WISCONSIN

CITY           SKY/WX    TMP DP  RH WIND       PRES   REMARKS
ANTIGO         MOCLDY    58  58  98 N6        29.80S
6HR MIN TEMP:  58; 6HR MAX TEMP:  64; 6HR PCP:  0.03;

STURGEON BAY   FAIR      64  61  88 NW6       29.76R
6HR MIN TEMP:  64; 6HR MAX TEMP:  70;

GREEN BAY      FAIR      63  62  97 NW7       29.76S
6HR MIN TEMP:  62; 6HR MAX TEMP:  73;

MANITOWOC      FAIR      65  63  93 NW6       29.76R
6HR MIN TEMP:  64; 6HR MAX TEMP:  76;

APPLETON       FAIR      61  61 100 W7        29.78S
CLINTONVILLE   FAIR      63  61  94 CALM      29.77S
OSHKOSH        FAIR      65  63  93 W5        29.77R
6HR MIN TEMP:  65; 6HR MAX TEMP:  75;

$$

WIZ032>034-041-042-053>061-200700-
SOUTHWEST WISCONSIN

CITY           SKY/WX    TMP DP  RH WIND       PRES   REMARKS
LA CROSSE      FAIR      67  64  90 SE5       29.79R
6HR MIN TEMP:  67; 6HR MAX TEMP:  79;

SPARTA         FAIR      60  59  97 CALM      29.81S
6HR MIN TEMP:  59; 6HR MAX TEMP:  75;

VIROQUA        FAIR      63  63 100 CALM      29.81S
6HR MIN TEMP:  62; 6HR MAX TEMP:  74;

BOSCOBEL       MOCLDY    64  62  93 CALM      29.81R FOG
6HR MIN TEMP:  64; 6HR MAX TEMP:  80;

PRAIRIE DU CHI FAIR      66  63  91 CALM      29.80S
6HR MIN TEMP:  65; 6HR MAX TEMP:  80;

PLATTEVILLE    FAIR      64  63  94 CALM      29.83S
6HR MIN TEMP:  64; 6HR MAX TEMP:  77;

$$

WIZ056-057-062-063-064-067-068-200700-
SOUTH CENTRAL WISCONSIN

CITY           SKY/WX    TMP DP  RH WIND       PRES   REMARKS
BARABOO/DELLS  FAIR      63  60  92 CALM      29.80R
6HR MIN TEMP:  62; 6HR MAX TEMP:  76;

LONE ROCK      FAIR      66  60  81 CALM      29.80S
6HR MIN TEMP:  66; 6HR MAX TEMP:  83;

WATERTOWN      FAIR      63  62  97 CALM      29.78S
6HR MIN TEMP:  63; 6HR MAX TEMP:  76;

MADISON        FAIR      64  61  90 CALM      29.80R
6HR MIN TEMP:  64; 6HR MAX TEMP:  78;

MIDDLETON      FAIR      63  63 100 CALM      29.81R
6HR MIN TEMP:  63; 6HR MAX TEMP:  78;

MONROE         FAIR      68  63  83 W8        29.81S
JANESVILLE     MOCLDY    68  64  88 CALM      29.79S
$$

WIZ051-052-058>065-066-070>072-200700-
SOUTHEAST WISCONSIN

CITY           SKY/WX    TMP DP  RH WIND       PRES   REMARKS
MILWAUKEE      FAIR      68  63  84 SW3       29.77S
6HR MIN TEMP:  67; 6HR MAX TEMP:  74;

WAUKESHA       FAIR      63  61  94 W3        29.79S
MILWAUKEE/TIMM FAIR      64  61  88 SW3       29.78S
RACINE         FAIR      68  65  90 W5        29.79S
6HR MIN TEMP:  67; 6HR MAX TEMP:  76;

BURLINGTON     MOCLDY    61  61  99 CALM      29.79S
6HR MIN TEMP:  61; 6HR MAX TEMP:  76;

KENOSHA        FAIR      63  62  97 CALM      29.79R
6HR MIN TEMP:  63; 6HR MAX TEMP:  79;

FOND DU LAC    FAIR      64  61  90 W6        29.77S
6HR MIN TEMP:  63; 6HR MAX TEMP:  75;

SHEBOYGAN      FAIR      63  61  93 W3        29.76S
6HR MIN TEMP:  63; 6HR MAX TEMP:  75;

WEST BEND      FAIR      64  59  82 W3        29.78S
JUNEAU         FAIR      64  37  36 CALM      29.80R
6HR MIN TEMP:  64; 6HR MAX TEMP:  75;

$$

LSZ147-162-200700-
LAKE SUPERIOR

STATION/POSITION TIME  TEMP    WIND        PRES    WAVE
                       AIR SEA DIR/SP/G            HT/PER
                 (UTC) (F)     (DEG/KT/KT) (MB)    (FT/S)
W MID LAKE BUOY  0550   57 56  320/  4/  6 1009.4R   1/ 5
DEVILS ISLAND    0600   60      80/  3/  3 1010.0R
PORT WING        0540   61     110/  4/  5 1010.2R
SAXON HARBOR     0500   61     360/  4/  6 1010.2R
$$

LMZ867-665-643>646-200700-
LAKE MICHIGAN

STATION/POSITION TIME  TEMP    WIND        PRES    WAVE
                       AIR SEA DIR/SP/G            HT/PER
                 (UTC) (F)     (DEG/KT/KT) (MB)    (FT/S)
N MID LAKE BUOY  0550   62 62  290/  8/  8 1005.9R   1/ 5
NORTHPORT PIER   0500   65     320/  8/ 11 1006.8R
SISTER BAY       0526   65     360/  9/ 11   N/A
KEWAUNEE LAKESHO 0500   65     310/  4/  5 1006.4R
SHEBOYGAN LAKESH 0600   68 65  270/  6/  7 1007.6R
ATWATER BUOY     0600   70     260/  4     1009.0F
MILWAUKEE LAKESH 0500   72     290/  3/  4   N/A
S MID LAKE BUOY  0550   67 66  280/  4/  4 1007.9R   1/ 4
KENOSHA   LAKESH 0600   71     260/  6/  6 1008.5R
$$

TC  - TEMPERATURE IN CELSIUS
VSB - VISIBILITY IN STATUTE MILES
WCI - WIND CHILL INDEX
HX  - HEAT INDEX



USA.gov is the U.S. government's official web portal to all federal, state and local government web resources and services.